Location: Allonne
(49.4086°N, 2.1143°E)
Time: 00:27:15
(UTC+00:00)

COSMO-SKYMED 1 - Pass Details

Date: 03 February 2023
Orbit: 621 x 623 km, 97.9° (Epoch: 01 April)

Event Time Altitude Azimuth Distance (km) Brightness Sun altitude
Rises 18:39:30 0° 8° (N) 2,922 5.9 -17.9°
Reaches altitude 10° 18:41:46 10° 3° (N) 2,010 5.1 -18.3°
Maximum altitude 18:45:56 45° 291° (WNW) 855 3.7 -18.9°
Drops below altitude 10° 18:49:58 11° 219° (SW) 1,953 5.7 -19.6°
Sets 18:52:18 0° 213° (SSW) 2,895 6.5 -20.0°
